www.pogodaiklimat.ru

Погода и климат >> Архив погоды >> Австрия >> Вена электроподстанция


ПОГОДА в Вене электроподстанция

  • Прогноз погоды в Вене электроподстанция
  • Монитор погоды в Вене электроподстанция

АРХИВ ПОГОДЫ в Вене электроподстанция

Время (UTC), дата Ветер
(напр.,м/с)
 
Видим.   Явления Облачность Т
(С)
Тd
(С)
f
(%)
Тe
(С)
Тes
(С)
Комфортность P
(гПа)
Po
(гПа)
Тmin
(С)
Tmax
(С)
R
(мм)
R24
(мм)
S
(см)
04 12.06 ЮВ 3 н/о н/о +19.7 +16.5 82 +22 +22 комфорт 1010.8 987.8
05 12.06 ЮВ 4 н/о н/о +21.3 +17.3 78 +25 +25 комфорт 1010.7 987.8
06 12.06 ЮВ 3 н/о н/о +22.8 +17.0 70 +28 +28 душно 1010.8 988.1 +19.4 +27.2
07 12.06 Ю 5 н/о н/о +26.2 +16.2 54 +30 +30 душно 1010.6 988.1
08 12.06 ЮВ 6 н/о н/о +26.0 +16.5 56 +30 +30 душно 1011.0 988.5
09 12.06 ЮВ 7 н/о н/о +28.1 +16.7 50 +32 +32 душно 1010.9 988.5
10 12.06 ЮВ 9
{15}
н/о н/о +29.3 +17.0 47 +33 +33 душно 1010.4 988.1
11 12.06 Ю 7
{15}
н/о н/о +30.0 +18.2 49 +35 +35 очень
душно
1010.2 988.0
12 12.06 ЮВ 8
{15}
н/о н/о +29.9 +17.0 46 +34 +34 очень
душно
1009.9 987.7
13 12.06 ЮВ 8
{14}
н/о н/о +30.4 +17.5 46 +34 +34 очень
душно
1009.7 987.5
14 12.06 ЮВ 8
{14}
н/о н/о +30.3 +18.4 49 +35 +35 очень
душно
1009.2 987.1
15 12.06 ЮВ 9
{14}
н/о н/о +30.0 +18.7 51 +35 +35 очень
душно
1009.0 986.8
16 12.06 ЮВ 8
{14}
н/о н/о +29.5 +18.0 50 +34 +34 очень
душно
1008.9 986.7
17 12.06 ЮВ 7 н/о н/о +28.4 +18.4 55 +33 +33 очень
душно
1008.7 986.4
18 12.06 ЮВ 5
{15}
н/о н/о +27.6 +19.0 59 +33 +33 очень
душно
1009.0 986.7 +22.1 +30.9
19 12.06 ЮВ 5 н/о н/о +26.1 +20.0 69 +32 +32 очень
душно
1009.4 987.0
20 12.06 ЮВ 4 н/о н/о +24.6 +19.6 74 +30 +30 очень
душно
1010.4 987.8
21 12.06 В 4 н/о н/о +24.4 +19.5 74 +30 +30 очень
душно
1010.7 988.1
22 12.06 ЮВ 4 н/о н/о +23.4 +19.7 80 +30 +30 очень
душно
1010.8 988.1
23 12.06 ЮВ 3 н/о н/о +23.2 +19.4 79 +30 +30 очень
душно
1010.9 988.2
00 13.06 ЮВ 3 н/о н/о +23.3 +18.9 76 +30 +30 очень
душно
1010.8 988.1
01 13.06 В 2 н/о н/о +22.2 +19.0 82 +28 +28 душно 1010.8 988.0
02 13.06 СВ 2 н/о н/о +21.7 +18.7 83 +27 +27 душно 1010.8 988.0
03 13.06 СВ 1 н/о н/о +21.7 +18.5 82 +26 +26 душно 1011.2 988.4
04 13.06 СЗ 2 н/о н/о +19.5 +16.6 83 +22 +22 комфорт 1011.9 988.9
05 13.06 СЗ 3 н/о н/о +20.2 +16.3 78 +23 +23 комфорт 1012.2 989.2
06 13.06 СЗ 2 н/о н/о +21.4 +16.5 74 +25 +25 комфорт 1012.8 989.9 +19.3 +27.7
07 13.06 СЗ 3 н/о н/о +23.0 +16.8 68 +28 +28 душно 1012.9 990.1
08 13.06 СЗ 3 н/о н/о +24.0 +17.5 67 +28 +28 душно 1013.1 990.4
09 13.06 СЗ 3 н/о н/о +24.3 +17.2 65 +28 +28 душно 1013.0 990.3
10 13.06 С 3 н/о н/о +26.0 +18.3 63 +31 +31 очень
душно
1012.7 990.2
11 13.06 СВ 2 н/о н/о +27.1 +18.7 60 +32 +32 очень
душно
1012.2 989.8
12 13.06 В 2 н/о н/о +28.4 +20.2 61 +35 +35 очень
душно
1011.5 989.2
13 13.06 В 3 н/о н/о +29.4 +20.9 60 +37 +37 очень
душно
1011.0 988.8
14 13.06 В 3 н/о н/о +30.7 +21.8 59 +39 +39 очень
душно
1010.2 988.1
15 13.06 ЮВ 4 н/о н/о +30.7 +20.6 55 +38 +38 очень
душно
1009.7 987.6 0.0
16 13.06 ЮВ 6 н/о н/о +29.6 +18.5 51 +34 +34 очень
душно
1009.6 987.4
17 13.06 ЮВ 6 н/о н/о +29.9 +18.6 51 +35 +35 очень
душно
1009.5 987.3
18 13.06 ЮВ 4 н/о н/о +28.4 +18.9 56 +34 +34 очень
душно
1009.3 987.0 +21.1 +31.2 0.0
19 13.06 ЮВ 4 н/о н/о +26.8 +18.1 59 +31 +31 душно 1010.2 987.8
20 13.06 ЮВ 4 н/о н/о +25.1 +17.5 63 +29 +29 душно 1010.7 988.1
21 13.06 ЮВ 3 н/о н/о +23.7 +17.0 66 +27 +27 жарко 1011.4 988.7
22 13.06 ЮЗ 2 н/о н/о +22.7 +17.1 71 +28 +28 душно 1012.4 989.6
23 13.06 СЗ 2 н/о н/о +23.5 +18.5 74 +28 +28 душно 1013.0 990.3
00 14.06 З 4 н/о н/о +23.5 +17.1 67 +27 +27 душно 1013.1 990.4
01 14.06 З 6 н/о н/о +23.1 +16.3 66 +28 +28 душно 1013.2 990.4
02 14.06 СЗ 4 н/о н/о +22.8 +15.9 65 +27 +27 душно 1014.7 991.9
03 14.06 СЗ 4 н/о н/о +22.0 +18.2 79 +27 +27 душно 1015.4 992.5
04 14.06 СЗ 4 н/о н/о +21.5 +18.6 84 +26 +26 душно 1016.3 993.3
05 14.06 СЗ 4 н/о н/о +22.1 +18.1 78 +27 +27 душно 1016.6 993.7
06 14.06 СЗ 5 н/о н/о +22.9 +18.3 75 +29 +29 очень
душно
1017.3 994.4 +21.3 +28.8
07 14.06 СЗ 4 н/о н/о +23.7 +18.6 73 +28 +28 душно 1018.0 995.2
08 14.06 СЗ 3 н/о н/о +25.2 +19.1 69 +30 +30 душно 1018.0 995.3
09 14.06 СЗ 3 н/о н/о +26.7 +19.9 66 +33 +33 очень
душно
1017.8 995.2
10 14.06 С 3 н/о н/о +27.5 +19.5 62 +33 +33 очень
душно
1017.8 995.3
11 14.06 С 2 н/о н/о +29.1 +19.0 54 +34 +34 очень
душно
1017.5 995.1
12 14.06 СВ 3 н/о н/о +29.4 +17.4 48 +33 +33 душно 1017.0 994.6
13 14.06 В 3 н/о н/о +30.5 +18.2 48 +35 +35 очень
душно
1016.5 994.2
14 14.06 В 2 н/о н/о +30.7 +16.9 44 +34 +34 очень
душно
1016.1 993.8
15 14.06 ЮВ 3 н/о н/о +30.8 +17.8 46 +35 +35 очень
душно
1015.6 993.3
16 14.06 В 3 н/о н/о +31.0 +18.8 48 +36 +36 очень
душно
1015.1 992.9
17 14.06 ЮВ 4 н/о н/о +30.2 +18.2 49 +35 +35 очень
душно
1014.8 992.5
18 14.06 ЮВ 3 н/о н/о +28.8 +19.7 58 +35 +35 очень
душно
1014.9 992.5 +22.8 +31.2
19 14.06 ЮВ 4 н/о н/о +27.1 +19.8 64 +33 +33 очень
душно
1014.8 992.3
20 14.06 ЮВ 4 н/о н/о +25.9 +18.7 65 +31 +31 очень
душно
1015.1 992.5
21 14.06 ЮВ 5 н/о н/о +25.9 +19.1 66 +31 +31 очень
душно
1014.8 992.2
22 14.06 ЮВ 5 н/о н/о +24.8 +19.0 70 +30 +30 душно 1014.8 992.1
23 14.06 ЮВ 4 н/о н/о +23.8 +19.8 78 +29 +29 душно 1014.3 991.6
00 15.06 ЮВ 4 н/о н/о +22.5 +19.7 84 +29 +29 очень
душно
1014.2 991.4
01 15.06 ЮВ 4 н/о н/о +22.3 +18.5 79 +28 +28 душно 1013.6 990.8
02 15.06 ЮЗ 1 н/о н/о +20.6 +17.9 85 +25 +25 комфорт 1013.5 990.5
03 15.06 ЮЗ 1 н/о н/о +19.8 +17.3 86 +24 +24 комфорт 1013.1 990.1
04 15.06 ЮВ 4 н/о н/о +22.0 +18.9 83 +27 +27 душно 1012.9 990.1
05 15.06 ЮВ 4 н/о н/о +23.8 +19.2 75 +29 +29 душно 1012.7 990.0
06 15.06 Ю 3 н/о н/о +25.1 +19.4 71 +30 +30 душно 1012.5 989.9 +19.6 +29.3
07 15.06 Ю 6 н/о н/о +27.3 +18.3 58 +32 +32 очень
душно
1012.3 989.9
08 15.06 Ю 5 н/о н/о +27.4 +19.9 64 +34 +34 очень
душно
1012.4 990.0
09 15.06 Ю 4 н/о н/о +28.2 +19.5 59 +34 +34 очень
душно
1012.5 990.1
10 15.06 Ю 6 н/о н/о +29.8 +18.6 51 +35 +35 очень
душно
1011.7 989.5
11 15.06 ЮВ 5 н/о н/о +30.9 +18.2 47 +36 +36 очень
душно
1011.3 989.2
12 15.06 ЮВ 6 н/о н/о +31.1 +17.7 45 +35 +35 очень
душно
1011.1 989.0
13 15.06 ЮВ 6 н/о н/о +31.5 +17.1 42 +35 +35 очень
душно
1010.8 988.7
14 15.06 ЮВ 4 н/о н/о +31.2 +18.9 48 +36 +36 очень
душно
1010.6 988.5
15 15.06 Ю 4 н/о н/о +31.6 +19.6 49 +37 +37 очень
душно
1010.2 988.1
16 15.06 ЮВ 6 н/о н/о +30.5 +19.6 52 +36 +36 очень
душно
1009.4 987.3
17 15.06 Ю 5 н/о н/о +31.0 +19.1 49 +36 +36 очень
душно
1009.1 987.0
18 15.06 ЮВ 3 н/о н/о +28.8 +20.0 59 +35 +35 очень
душно
1009.3 987.1 +24.8 +32.3
19 15.06 ЮВ 3 н/о н/о +26.7 +20.3 68 +33 +33 очень
душно
1009.7 987.3
20 15.06 З 5 н/о н/о +26.3 +16.4 54 +30 +30 душно 1011.2 988.7
21 15.06 З 6 н/о н/о +25.1 +15.7 56 +28 +28 жарко 1011.3 988.7
22 15.06 З 5 н/о н/о +24.3 +16.0 60 +28 +28 душно 1011.9 989.2
23 15.06 С 1 н/о н/о +23.4 +16.1 64 +28 +28 душно 1012.8 990.0
00 16.06 СЗ 4 н/о н/о +22.9 +16.3 66 +27 +27 душно 1012.5 989.7
01 16.06 З 2 н/о н/о +21.9 +16.2 70 +26 +26 душно 1012.9 990.0
02 16.06 СЗ 3 н/о н/о +20.7 +16.3 76 +24 +24 комфорт 1012.7 989.7
03 16.06 СЗ 4 н/о н/о +20.5 +16.6 78 +24 +24 комфорт 1013.0 990.0
04 16.06 СЗ 4 н/о н/о +20.3 +16.6 79 +23 +23 комфорт 1013.5 990.5
05 16.06 СЗ 6 н/о н/о +21.3 +17.2 77 +25 +25 комфорт 1013.9 991.0
06 16.06 СЗ 8 н/о н/о +21.7 +16.8 74 +26 +26 душно 1014.5 991.6 +20.2 +29.1
07 16.06 СЗ 4 н/о н/о +21.8 +16.4 71 +26 +26 душно 1015.4 992.5
08 16.06 СЗ 7 н/о в посл. час осадки н/о +21.7 +17.6 78 +26 +26 душно 1016.1 993.2 4
09 16.06 З 7 н/о {осадки} н/о +22.8 +17.2 71 +28 +28 душно 1016.6 993.7 4
10 16.06 З 7
{14}
н/о н/о +23.3 +16.7 66 +28 +28 душно 1017.0 994.1
11 16.06 З 7
{14}
н/о н/о +23.9 +17.0 65 +28 +28 душно 1016.8 994.0
12 16.06 З 9
{15}
н/о {осадки} н/о +24.5 +16.5 61 +28 +28 душно 1016.8 994.0 4
13 16.06 З 9
{16}
н/о н/о +23.9 +16.3 62 +27 +27 жарко 1016.6 993.8
14 16.06 СЗ 7
{15}
н/о н/о +22.7 +16.3 67 +27 +27 душно 1017.3 994.4
15 16.06 СЗ 6
{16}
н/о н/о +23.0 +16.5 67 +28 +28 душно 1016.4 993.5
16 16.06 СЗ 5
{13}
н/о н/о +23.6 +16.4 64 +27 +27 жарко 1016.8 994.0
17 16.06 СЗ 6 н/о н/о +22.6 +16.2 67 +27 +27 душно 1017.6 994.7
18 16.06 СЗ 5
{16}
н/о н/о +22.6 +15.6 65 +27 +27 душно 1017.6 994.7 +19.3 +25.0 4
19 16.06 СЗ 5 н/о н/о +22.0 +14.9 64 +25 +25 комфорт 1017.8 994.8
20 16.06 СЗ 5 н/о н/о +21.5 +14.7 65 +25 +25 комфорт 1019.3 996.2
21 16.06 СЗ 3 н/о н/о +20.7 +14.4 67 +24 +24 комфорт 1019.8 996.7
22 16.06 СЗ 4 н/о н/о +19.6 +14.1 71 +21 +21 комфорт 1019.5 996.3
23 16.06 СЗ 3 н/о н/о +19.3 +13.9 71 +21 +21 комфорт 1019.5 996.3
00 17.06 СЗ 5 н/о н/о +19.7 +13.1 66 +21 +21 комфорт 1019.8 996.6
01 17.06 СЗ 3 н/о н/о +18.9 +13.5 71 +20 +20 1019.6 996.3
02 17.06 СЗ 4 н/о н/о +18.0 +13.8 76 +18 +18 1019.5 996.2
03 17.06 СЗ 4 н/о н/о +18.2 +13.8 75 +18 +18 1019.6 996.3
04 17.06 СЗ 3 н/о н/о +18.1 +14.0 77 +18 +18 1020.0 996.7
05 17.06 СЗ 3 н/о н/о +19.1 +14.4 74 +21 +21 комфорт 1019.9 996.6
06 17.06 СЗ 3 н/о н/о +19.6 +13.9 70 +22 +22 комфорт 1019.9 996.7 +17.7 +22.6
07 17.06 С 5 н/о н/о +21.0 +14.1 65 +24 +24 комфорт 1019.8 996.7
08 17.06 С 6 н/о н/о +21.7 +14.6 64 +25 +25 комфорт 1019.8 996.7
09 17.06 С 6 н/о н/о +22.9 +15.6 63 +27 +27 душно 1019.7 996.7
10 17.06 С 5 н/о н/о +23.9 +15.5 59 +27 +27 жарко 1019.6 996.7
11 17.06 С 5 н/о н/о +23.6 +15.4 60 +27 +27 жарко 1019.4 996.5
12 17.06 С 5 н/о н/о +24.4 +15.7 58 +27 +27 жарко 1019.1 996.3
13 17.06 С 5 н/о н/о +24.6 +16.0 59 +28 +28 душно 1018.7 995.9
14 17.06 С 4 н/о н/о +25.3 +16.0 56 +29 +29 душно 1018.3 995.6
15 17.06 С 5 н/о н/о +25.4 +15.7 55 +29 +29 душно 1017.8 995.1
16 17.06 СВ 5 н/о н/о +25.0 +14.7 53 +28 +28 жарко 1017.6 994.8
17 17.06 С 4 н/о н/о +25.0 +14.5 52 +28 +28 жарко 1017.4 994.6
18 17.06 С 4 н/о н/о +23.8 +14.2 55 +26 +26 жарко 1017.3 994.5 +19.5 +25.6
19 17.06 С 4 н/о н/о +22.5 +14.6 61 +26 +26 жарко 1017.5 994.6
20 17.06 С 3 н/о н/о +21.7 +14.6 64 +25 +25 комфорт 1018.2 995.2
21 17.06 С 2 н/о н/о +21.3 +14.3 64 +24 +24 комфорт 1018.3 995.2
22 17.06 С 3 н/о н/о +20.6 +14.1 66 +24 +24 комфорт 1018.2 995.1
23 17.06 С 2 н/о н/о +19.4 +14.2 72 +22 +22 комфорт 1018.1 994.9
00 18.06 С 2 н/о н/о +19.3 +13.9 71 +21 +21 комфорт 1017.9 994.7
01 18.06 С 2 н/о н/о +18.8 +13.9 73 +20 +20 1017.6 994.4
02 18.06 С 2 н/о н/о +17.7 +13.8 78 +18 +18 1017.4 994.1
03 18.06 С 1 н/о н/о +17.2 +13.8 80 +18 +18 1017.6 994.2
04 18.06 С 1 н/о н/о +17.3 +14.0 81 +18 +18 1017.8 994.4
05 18.06 С 1 н/о н/о +19.4 +14.3 72 +22 +22 комфорт 1017.6 994.4
06 18.06 СВ 2 н/о н/о +20.2 +13.2 64 +23 +23 комфорт 1017.7 994.6 +17.0 +24.1
07 18.06 В 1 н/о н/о +21.5 +14.2 63 +24 +24 комфорт 1017.7 994.7
08 18.06 ЮВ 2 н/о н/о +22.3 +14.4 61 +26 +26 жарко 1017.6 994.6
09 18.06 В 1 н/о н/о +23.6 +14.8 58 +26 +26 жарко 1017.3 994.4
10 18.06 В 2 н/о н/о +24.7 +15.0 55 +28 +28 душно 1016.9 994.1
11 18.06 В 3 н/о н/о +25.6 +14.1 49 +28 +28 жарко 1016.2 993.5
12 18.06 ЮВ 2 н/о н/о +26.9 +15.2 49 +30 +30 душно 1015.5 992.9
13 18.06 ЮВ 4 н/о н/о +27.3 +14.6 46 +30 +30 душно 1015.0 992.5
14 18.06 ЮВ 3 н/о н/о +27.2 +14.5 46 +30 +30 душно 1014.5 992.0
15 18.06 ЮВ 4 н/о н/о +27.2 +14.7 46 +30 +30 душно 1013.9 991.4
16 18.06 ЮВ 3 н/о н/о +27.1 +15.6 49 +30 +30 душно 1013.6 991.1
17 18.06 ЮВ 3 н/о н/о +26.9 +16.2 52 +30 +30 душно 1013.5 991.0
18 18.06 ЮВ 3 н/о н/о +25.3 +16.1 57 +29 +29 душно 1013.7 991.1 +20.0 +28.1
19 18.06 В 2 н/о н/о +24.6 +16.3 60 +28 +28 душно 1013.8 991.1
20 18.06 В 3 н/о н/о +23.1 +16.7 67 +28 +28 душно 1014.1 991.3 0.0
21 18.06 ЮВ 4 н/о н/о +21.9 +17.0 74 +26 +26 душно 1014.2 991.3 0.0
22 18.06 ЮВ 3 н/о н/о +21.2 +16.8 76 +25 +25 комфорт 1013.8 990.9
23 18.06 ЮЗ 2 н/о н/о +19.7 +16.6 82 +23 +23 комфорт 1014.0 990.9
00 19.06 Ю 2 н/о н/о +19.6 +16.5 82 +22 +22 комфорт 1014.0 990.9 0.0
01 19.06 Ю 1 н/о н/о +19.0 +16.3 84 +22 +22 комфорт 1013.5 990.4
02 19.06 ЮВ 1 н/о н/о +18.6 +16.2 86 +21 +21 комфорт 1013.2 990.1
03 19.06 З 1 н/о н/о +17.3 +16.1 93 +18 +18 1013.2 990.0
04 19.06 Ю 1 н/о н/о +18.3 +16.3 88 +20 +20 1013.2 990.0

 

Местоположение метеостанции Вена электроподстанция (Австрия): широта 48.13 долгота 16.42 высота над уровнем моря 199 м.

В архиве по умолчанию представлена погода в Вене электроподстанция за последнюю неделю. Архивные данные за месяц целиком и за предыдущие месяцы, начиная с января 2011 года, Вы можете получить, выбрав интересующий диапазон дат из раскрывающегося списка и нажав кнопку "Ввод!".


*Определитесь, кто Вы:
робот инопланетянин человек

Внимание! Время в таблицах - всемирное. Для получения местного времени необходимо прибавить поправку, которая равна 1 ч.

Смотрите также архив погоды в соседних городах и на ближайших метеорологических станциях:

Погода в Вене город (Австрия) (9 км)
Погода в Вене аэропорт (Австрия) (11 км)
Погода в Вене Донауфельд (Австрия) (13 км)
Погода в Грос-Энцерсдорфе (Австрия) (14 км)
Погода в Вене (Австрия) (14 км)
Погода в Гумпольдскирхене (Австрия) (15 км)
Погода в Мариябрунн (Австрия) (16 км)
Погода в Зайберсдорфе (Австрия) (18 км)
Погода в Тульн-ан-дер-Донау (Австрия) (31 км)
Погода в Айзенштадте (Австрия) (32 км)

Пояснения к столбцам:

Ветер - указаны скорость ветра в м/с - средняя за 10 мин, порывы в срок и между сроками (в фигурных скобках) и направление, откуда дует ветер: С - северный, СВ - северо-восточный, В - восточный, ЮВ - юго-восточный, Ю - южный, ЮЗ - юго-западный, З - западный, СЗ - северо-западный.
Видимость - горизонтальная дальность видимости в метрах или километрах. При видимости от 1 до 10 км при отсутствии осадков обычно наблюдается дымка, при ухудшении видимости до 1 км и менее - туман. В сухую погоду видимость может ухудшаться дымом, пылью или мглою.
Явления - указаны атмосферные явления, наблюдавшиеся в срок или в последний час перед сроком; фигурными скобками обозначены явления, наблюдавшиеся между сроками (за 1-3 часа до срока); квадратными скобками обозначены град или гололедные отложения с указанием их диаметра в мм.
Облачность - указаны через наклонную черту общая и нижняя облачность в баллах и высота нижней границы облаков в метрах; квадратными скобками обозначены формы облаков: Ci - перистые, Cs - перисто-слоистые, Cc - перисто-кучевые, Ac - высококучевые, As - высокослоистые, Sc - слоисто-кучевые, Ns - слоисто-дождевые, Cu - кучевые, Cb - кучево-дождевые. Подробнее классификацию облаков см. в Атласе облаков (PDF).
T - Температура воздуха - температура, измеренная на высоте 2 м над землей.
Td - Температура точки росы - температура, при понижении до которой содержащийся в воздухе водяной пар достигнет насыщения.
f - Относительная влажность воздуха - влажноcть воздуха, измеренная на высоте 2 м над землей.
Te - Эффективная температура - температура, которую ощущает одетый по сезону человек в тени. Характеристика душности погоды. При расчете учитывается влияние влажности воздуха и скорости ветра на теплоощущения человека.
Tes - Эффективная температура на солнце - температура, которую ощущает человек, с поправкой на солнечный нагрев. Характеристика знойности погоды. Зависит от высоты солнца над горизонтом, облачности и скорости ветра. Ночью, в пасмурную погоду, а также при ветре 12 м/с и более поправка равна нулю.
P - Атмосферное давление - приведенное к уровню моря атмосферное давление.
Po - Атмосферное давление - измеренное на уровне метеостанции атмосферное давление.
Tmin - Минимальная температура - минимум температуры воздуха на высоте 2 м над землей.
Tmax - Максимальная температура - максимум температуры воздуха на высоте 2 м над землей.
R - Количество осадков - Количество выпавших осадков за период времени, мм. При наведении курсора мыши на число - период времени, за который выпало указанное количество осадков.
R24 - Количество осадков - Количество выпавших осадков за 24 часа, мм.
S - Снежный покров - Высота снежного покрова, см. При наведении курсора мыши на число - состояние снежного покрова и степень покрытия местности в баллах.